Time,TemperatureF,DewpointF,PressureIn,WindDirection,WindDirectionDegrees,WindSpeedMPH,WindSpeedGustMPH,Humidity,HourlyPrecipIn,Conditions,Clouds,dailyrainin,SoftwareType,DateUTC
2013-01-17 00:01:00,34.0,31.0,30.29,NW,309,0.0,-999.0,88,-99.99,,,-99.99,,2013-01-17 08:01:00,
2013-01-17 00:11:00,34.0,31.0,30.29,NW,309,0.0,-999.0,88,-99.99,,,-99.99,,2013-01-17 08:11:00,
2013-01-17 00:22:00,34.0,31.0,30.29,NW,309,0.0,-999.0,89,-99.99,,,-99.99,,2013-01-17 08:22:00,
2013-01-17 00:32:00,34.0,31.0,30.29,NW,309,0.0,-999.0,89,-99.99,,,-99.99,,2013-01-17 08:32:00,
2013-01-17 00:43:00,34.0,31.0,30.29,NW,309,0.0,-999.0,89,-99.99,,,-99.99,,2013-01-17 08:43:00,
2013-01-17 00:52:00,33.0,30.0,30.29,NW,309,0.0,-999.0,90,-99.99,,,-99.99,,2013-01-17 08:52:00,
2013-01-17 01:02:00,33.0,30.0,30.29,NW,309,0.0,-999.0,90,-99.99,,,-99.99,,2013-01-17 09:02:00,
2013-01-17 01:12:00,33.0,30.0,30.29,NW,309,0.0,-999.0,90,-99.99,,,-99.99,,2013-01-17 09:12:00,
2013-01-17 01:22:00,33.0,30.0,30.29,NW,309,0.0,-999.0,90,-99.99,,,-99.99,,2013-01-17 09:22:00,
2013-01-17 01:32:00,32.0,29.0,30.29,NW,309,0.0,-999.0,90,-99.99,,,-99.99,,2013-01-17 09:32:00,
2013-01-17 01:42:00,32.0,29.0,30.29,NW,309,0.0,-999.0,90,-99.99,,,-99.99,,2013-01-17 09:42:00,
2013-01-17 01:52:00,32.0,29.0,30.29,NW,309,0.0,-999.0,90,-99.99,,,-99.99,,2013-01-17 09:52:00,
2013-01-17 02:02:00,32.0,29.0,30.29,NW,309,0.0,-999.0,90,-99.99,,,-99.99,,2013-01-17 10:02:00,
2013-01-17 02:11:00,32.0,29.0,30.29,NW,309,0.0,-999.0,90,-99.99,,,-99.99,,2013-01-17 10:11:00,
2013-01-17 02:22:00,32.0,29.0,30.29,NW,309,0.0,-999.0,90,-99.99,,,-99.99,,2013-01-17 10:22:00,
2013-01-17 02:32:00,31.0,29.0,30.29,NW,309,0.0,-999.0,91,-99.99,,,-99.99,,2013-01-17 10:32:00,
2013-01-17 02:42:00,31.0,29.0,30.29,NW,309,0.0,-999.0,91,-99.99,,,-99.99,,2013-01-17 10:42:00,
2013-01-17 02:53:00,31.0,29.0,30.28,NW,309,0.0,-999.0,91,-99.99,,,-99.99,,2013-01-17 10:53:00,
2013-01-17 03:02:00,31.0,29.0,30.28,NW,309,0.0,-999.0,91,-99.99,,,-99.99,,2013-01-17 11:02:00,
2013-01-17 03:11:00,31.0,29.0,30.28,NW,309,0.0,-999.0,91,-99.99,,,-99.99,,2013-01-17 11:11:00,
2013-01-17 03:22:00,31.0,29.0,30.28,NW,309,0.0,-999.0,91,-99.99,,,-99.99,,2013-01-17 11:22:00,
2013-01-17 03:32:00,31.0,29.0,30.28,NW,309,0.0,-999.0,91,-99.99,,,-99.99,,2013-01-17 11:32:00,
2013-01-17 03:42:00,31.0,29.0,30.28,NW,309,0.0,-999.0,91,-99.99,,,-99.99,,2013-01-17 11:42:00,
2013-01-17 03:53:00,30.0,28.0,30.27,NW,309,0.0,-999.0,92,-99.99,,,-99.99,,2013-01-17 11:53:00,
2013-01-17 04:02:00,30.0,28.0,30.27,NW,309,0.0,-999.0,92,-99.99,,,-99.99,,2013-01-17 12:02:00,
2013-01-17 04:12:00,30.0,28.0,30.27,NW,309,0.0,-999.0,92,-99.99,,,-99.99,,2013-01-17 12:12:00,
2013-01-17 04:22:00,30.0,28.0,30.27,NW,309,0.0,-999.0,92,-99.99,,,-99.99,,2013-01-17 12:22:00,
2013-01-17 04:32:00,30.0,28.0,30.27,NW,309,0.0,-999.0,92,-99.99,,,-99.99,,2013-01-17 12:32:00,
2013-01-17 04:42:00,30.0,28.0,30.27,NW,309,0.0,-999.0,92,-99.99,,,-99.99,,2013-01-17 12:42:00,
2013-01-17 04:53:00,30.0,28.0,30.27,NW,309,0.0,-999.0,92,-99.99,,,-99.99,,2013-01-17 12:53:00,
2013-01-17 05:02:00,30.0,28.0,30.27,NW,309,0.0,-999.0,93,-99.99,,,-99.99,,2013-01-17 13:02:00,
2013-01-17 05:12:00,30.0,28.0,30.27,NW,309,0.0,-999.0,93,-99.99,,,-99.99,,2013-01-17 13:12:00,
2013-01-17 05:22:00,30.0,28.0,30.27,NW,309,0.0,-999.0,93,-99.99,,,-99.99,,2013-01-17 13:22:00,
2013-01-17 05:33:00,29.0,27.0,30.27,NW,309,0.0,-999.0,93,-99.99,,,-99.99,,2013-01-17 13:33:00,
2013-01-17 05:42:00,29.0,27.0,30.27,NW,309,0.0,-999.0,93,-99.99,,,-99.99,,2013-01-17 13:42:00,
2013-01-17 05:53:00,29.0,27.0,30.27,NW,309,0.0,-999.0,93,-99.99,,,-99.99,,2013-01-17 13:53:00,
2013-01-17 06:02:00,29.0,27.0,30.26,NW,309,0.0,-999.0,93,-99.99,,,-99.99,,2013-01-17 14:02:00,
2013-01-17 06:12:00,29.0,27.0,30.26,NW,309,0.0,-999.0,93,-99.99,,,-99.99,,2013-01-17 14:12:00,
2013-01-17 06:23:00,29.0,27.0,30.26,NW,309,0.0,-999.0,93,-99.99,,,-99.99,,2013-01-17 14:23:00,
2013-01-17 06:32:00,29.0,27.0,30.26,NW,309,0.0,-999.0,93,-99.99,,,-99.99,,2013-01-17 14:32:00,
2013-01-17 06:42:00,29.0,27.0,30.26,NW,309,0.0,-999.0,93,-99.99,,,-99.99,,2013-01-17 14:42:00,
2013-01-17 06:53:00,29.0,27.0,30.26,NW,309,0.0,-999.0,93,-99.99,,,-99.99,,2013-01-17 14:53:00,
2013-01-17 07:02:00,29.0,27.0,30.26,NW,309,0.0,-999.0,93,-99.99,,,-99.99,,2013-01-17 15:02:00,
2013-01-17 07:12:00,29.0,27.0,30.26,NW,309,0.0,-999.0,93,-99.99,,,-99.99,,2013-01-17 15:12:00,
2013-01-17 07:22:00,29.0,27.0,30.26,NW,309,0.0,-999.0,93,-99.99,,,-99.99,,2013-01-17 15:22:00,
2013-01-17 07:32:00,29.0,27.0,30.27,NW,309,0.0,-999.0,93,-99.99,,,-99.99,,2013-01-17 15:32:00,
2013-01-17 07:42:00,29.0,27.0,30.27,NW,309,0.0,-999.0,93,-99.99,,,-99.99,,2013-01-17 15:42:00,
2013-01-17 07:53:00,29.0,27.0,30.27,NW,309,0.0,-999.0,93,-99.99,,,-99.99,,2013-01-17 15:53:00,
2013-01-17 08:02:00,29.0,27.0,30.27,NW,309,0.0,-999.0,93,-99.99,,,-99.99,,2013-01-17 16:02:00,
2013-01-17 08:12:00,29.0,27.0,30.27,NW,309,0.0,-999.0,93,-99.99,,,-99.99,,2013-01-17 16:12:00,
2013-01-17 08:22:00,29.0,27.0,30.27,NW,309,0.0,-999.0,93,-99.99,,,-99.99,,2013-01-17 16:22:00,
2013-01-17 08:33:00,29.0,27.0,30.28,NW,309,0.0,-999.0,94,-99.99,,,-99.99,,2013-01-17 16:33:00,
2013-01-17 08:43:00,29.0,27.0,30.28,NW,309,0.0,-999.0,94,-99.99,,,-99.99,,2013-01-17 16:43:00,
2013-01-17 08:53:00,30.0,29.0,30.29,NW,309,0.0,-999.0,95,-99.99,,,-99.99,,2013-01-17 16:53:00,
2013-01-17 09:02:00,32.0,31.0,30.29,NW,309,0.0,-999.0,95,-99.99,,,-99.99,,2013-01-17 17:02:00,
2013-01-17 09:12:00,32.0,31.0,30.29,NW,309,0.0,-999.0,95,-99.99,,,-99.99,,2013-01-17 17:12:00,
2013-01-17 09:22:00,34.0,33.0,30.29,NW,309,0.0,-999.0,96,-99.99,,,-99.99,,2013-01-17 17:22:00,
2013-01-17 09:32:00,36.0,35.0,30.30,NW,309,0.0,-999.0,96,-99.99,,,-99.99,,2013-01-17 17:32:00,
2013-01-17 09:42:00,36.0,35.0,30.30,NW,309,0.0,-999.0,96,-99.99,,,-99.99,,2013-01-17 17:42:00,
2013-01-17 09:53:00,39.0,38.0,30.30,NW,309,0.0,-999.0,96,-99.99,,,-99.99,,2013-01-17 17:53:00,
2013-01-17 10:02:00,40.0,39.0,30.30,NW,309,0.0,-999.0,96,-99.99,,,-99.99,,2013-01-17 18:02:00,
2013-01-17 10:22:00,43.0,39.0,30.30,NW,308,0.0,-999.0,87,-99.99,,,-99.99,,2013-01-17 18:22:00,
2013-01-17 10:33:00,45.0,38.0,30.30,West,275,0.0,-999.0,75,-99.99,,,-99.99,,2013-01-17 18:33:00,
2013-01-17 10:43:00,45.0,38.0,30.30,West,275,0.0,-999.0,75,-99.99,,,-99.99,,2013-01-17 18:43:00,
2013-01-17 10:53:00,47.0,38.0,30.29,WSW,253,0.0,-999.0,70,-99.99,,,-99.99,,2013-01-17 18:53:00,
2013-01-17 11:02:00,49.0,38.0,30.29,WSW,253,1.0,-999.0,66,-99.99,,,-99.99,,2013-01-17 19:02:00,
2013-01-17 11:12:00,49.0,38.0,30.29,WSW,253,1.0,-999.0,66,-99.99,,,-99.99,,2013-01-17 19:12:00,
2013-01-17 11:22:00,50.0,38.0,30.28,WSW,253,0.0,-999.0,63,-99.99,,,-99.99,,2013-01-17 19:22:00,
2013-01-17 11:32:00,52.0,38.0,30.27,SW,224,1.0,-999.0,59,-99.99,,,-99.99,,2013-01-17 19:32:00,
2013-01-17 11:42:00,52.0,38.0,30.27,SW,224,1.0,-999.0,59,-99.99,,,-99.99,,2013-01-17 19:42:00,
2013-01-17 11:53:00,53.0,38.0,30.27,SW,224,0.0,-999.0,57,-99.99,,,-99.99,,2013-01-17 19:53:00,
2013-01-17 12:02:00,54.0,37.0,30.26,SW,224,0.0,-999.0,53,-99.99,,,-99.99,,2013-01-17 20:02:00,
2013-01-17 12:12:00,54.0,37.0,30.26,SW,224,0.0,-999.0,53,-99.99,,,-99.99,,2013-01-17 20:12:00,
2013-01-17 12:22:00,55.0,39.0,30.24,SW,224,1.0,-999.0,54,-99.99,,,-99.99,,2013-01-17 20:22:00,
2013-01-17 12:32:00,55.0,37.0,30.24,SW,221,0.0,-999.0,51,-99.99,,,-99.99,,2013-01-17 20:32:00,
2013-01-17 12:43:00,55.0,37.0,30.24,SW,221,0.0,-999.0,51,-99.99,,,-99.99,,2013-01-17 20:43:00,
2013-01-17 12:53:00,56.0,37.0,30.23,NW,322,2.0,-999.0,49,-99.99,,,-99.99,,2013-01-17 20:53:00,
2013-01-17 13:02:00,57.0,37.0,30.22,NNW,334,1.0,-999.0,47,-99.99,,,-99.99,,2013-01-17 21:02:00,
2013-01-17 13:12:00,57.0,37.0,30.22,NNW,334,1.0,-999.0,47,-99.99,,,-99.99,,2013-01-17 21:12:00,
2013-01-17 13:22:00,58.0,36.0,30.22,West,276,1.0,-999.0,44,-99.99,,,-99.99,,2013-01-17 21:22:00,
2013-01-17 13:33:00,58.0,36.0,30.21,West,271,2.0,-999.0,44,-99.99,,,-99.99,,2013-01-17 21:33:00,
2013-01-17 13:42:00,58.0,36.0,30.21,West,271,2.0,-999.0,44,-99.99,,,-99.99,,2013-01-17 21:42:00,
2013-01-17 13:52:00,59.0,37.0,30.20,WNW,295,0.0,-999.0,43,-99.99,,,-99.99,,2013-01-17 21:52:00,
2013-01-17 14:02:00,60.0,36.0,30.20,NW,316,2.0,-999.0,41,-99.99,,,-99.99,,2013-01-17 22:02:00,
2013-01-17 14:12:00,60.0,36.0,30.20,NW,316,2.0,-999.0,41,-99.99,,,-99.99,,2013-01-17 22:12:00,
2013-01-17 14:22:00,60.0,36.0,30.20,NW,316,2.0,-999.0,41,-99.99,,,-99.99,,2013-01-17 22:22:00,
2013-01-17 14:32:00,60.0,36.0,30.19,NW,306,1.0,-999.0,41,-99.99,,,-99.99,,2013-01-17 22:32:00,
2013-01-17 14:42:00,60.0,36.0,30.19,NW,306,1.0,-999.0,41,-99.99,,,-99.99,,2013-01-17 22:42:00,
2013-01-17 14:52:00,61.0,36.0,30.18,West,264,1.0,-999.0,39,-99.99,,,-99.99,,2013-01-17 22:52:00,
2013-01-17 15:02:00,61.0,35.0,30.18,West,260,0.0,-999.0,38,-99.99,,,-99.99,,2013-01-17 23:02:00,
2013-01-17 15:12:00,61.0,35.0,30.18,West,260,0.0,-999.0,38,-99.99,,,-99.99,,2013-01-17 23:12:00,
2013-01-17 15:22:00,62.0,35.0,30.17,WNW,292,1.0,-999.0,37,-99.99,,,-99.99,,2013-01-17 23:22:00,
2013-01-17 15:32:00,62.0,36.0,30.17,West,277,1.0,-999.0,38,-99.99,,,-99.99,,2013-01-17 23:32:00,
2013-01-17 15:42:00,62.0,36.0,30.17,West,277,1.0,-999.0,38,-99.99,,,-99.99,,2013-01-17 23:42:00,
2013-01-17 15:52:00,62.0,35.0,30.17,WNW,299,1.0,-999.0,37,-99.99,,,-99.99,,2013-01-17 23:52:00,
2013-01-17 16:02:00,62.0,35.0,30.17,WNW,298,1.0,-999.0,37,-99.99,,,-99.99,,2013-01-18 00:02:00,
2013-01-17 16:12:00,62.0,35.0,30.17,WNW,298,1.0,-999.0,37,-99.99,,,-99.99,,2013-01-18 00:12:00,
2013-01-17 16:22:00,62.0,35.0,30.17,WNW,298,0.0,-999.0,37,-99.99,,,-99.99,,2013-01-18 00:22:00,
2013-01-17 16:32:00,62.0,35.0,30.17,WNW,298,0.0,-999.0,37,-99.99,,,-99.99,,2013-01-18 00:32:00,
2013-01-17 16:42:00,61.0,37.0,30.17,WNW,296,0.0,-999.0,41,-99.99,,,-99.99,,2013-01-18 00:42:00,
2013-01-17 16:52:00,61.0,37.0,30.17,WNW,296,0.0,-999.0,41,-99.99,,,-99.99,,2013-01-18 00:52:00,
2013-01-17 17:02:00,60.0,39.0,30.18,WNW,298,0.0,-999.0,46,-99.99,,,-99.99,,2013-01-18 01:02:00,
2013-01-17 17:12:00,60.0,39.0,30.18,WNW,298,0.0,-999.0,46,-99.99,,,-99.99,,2013-01-18 01:12:00,
2013-01-17 17:22:00,59.0,40.0,30.18,WNW,298,0.0,-999.0,49,-99.99,,,-99.99,,2013-01-18 01:22:00,
2013-01-17 17:32:00,59.0,40.0,30.18,WNW,298,0.0,-999.0,49,-99.99,,,-99.99,,2013-01-18 01:32:00,
2013-01-17 17:42:00,59.0,40.0,30.18,WNW,298,0.0,-999.0,49,-99.99,,,-99.99,,2013-01-18 01:42:00,
2013-01-17 17:52:00,55.0,40.0,30.18,WNW,298,0.0,-999.0,56,-99.99,,,-99.99,,2013-01-18 01:52:00,
2013-01-17 18:02:00,53.0,39.0,30.18,WNW,298,0.0,-999.0,59,-99.99,,,-99.99,,2013-01-18 02:02:00,
2013-01-17 18:12:00,53.0,39.0,30.18,WNW,298,0.0,-999.0,59,-99.99,,,-99.99,,2013-01-18 02:12:00,
2013-01-17 18:22:00,51.0,38.0,30.18,WNW,298,0.0,-999.0,62,-99.99,,,-99.99,,2013-01-18 02:22:00,
2013-01-17 18:32:00,50.0,39.0,30.18,WNW,298,0.0,-999.0,65,-99.99,,,-99.99,,2013-01-18 02:32:00,
2013-01-17 18:42:00,50.0,39.0,30.18,WNW,298,0.0,-999.0,65,-99.99,,,-99.99,,2013-01-18 02:42:00,
2013-01-17 18:53:00,48.0,38.0,30.18,WNW,298,0.0,-999.0,68,-99.99,,,-99.99,,2013-01-18 02:53:00,
2013-01-17 19:02:00,47.0,38.0,30.19,WNW,298,0.0,-999.0,70,-99.99,,,-99.99,,2013-01-18 03:02:00,
2013-01-17 19:12:00,47.0,38.0,30.19,WNW,298,0.0,-999.0,70,-99.99,,,-99.99,,2013-01-18 03:12:00,
2013-01-17 19:22:00,46.0,38.0,30.19,WNW,298,0.0,-999.0,73,-99.99,,,-99.99,,2013-01-18 03:22:00,
2013-01-17 19:32:00,45.0,37.0,30.19,WNW,298,0.0,-999.0,74,-99.99,,,-99.99,,2013-01-18 03:32:00,
2013-01-17 19:42:00,45.0,37.0,30.19,WNW,298,0.0,-999.0,74,-99.99,,,-99.99,,2013-01-18 03:42:00,
2013-01-17 19:52:00,44.0,37.0,30.18,WNW,298,0.0,-999.0,76,-99.99,,,-99.99,,2013-01-18 03:52:00,
2013-01-17 20:02:00,43.0,37.0,30.18,WNW,298,0.0,-999.0,78,-99.99,,,-99.99,,2013-01-18 04:02:00,
2013-01-17 20:12:00,43.0,37.0,30.18,WNW,298,0.0,-999.0,78,-99.99,,,-99.99,,2013-01-18 04:12:00,
2013-01-17 20:22:00,42.0,36.0,30.18,WNW,298,0.0,-999.0,79,-99.99,,,-99.99,,2013-01-18 04:22:00,
2013-01-17 20:32:00,42.0,37.0,30.19,WNW,298,0.0,-999.0,81,-99.99,,,-99.99,,2013-01-18 04:32:00,
2013-01-17 20:42:00,42.0,37.0,30.19,WNW,298,0.0,-999.0,81,-99.99,,,-99.99,,2013-01-18 04:42:00,
2013-01-17 20:53:00,41.0,36.0,30.19,WNW,298,0.0,-999.0,82,-99.99,,,-99.99,,2013-01-18 04:53:00,
2013-01-17 21:03:00,41.0,36.0,30.19,WNW,298,0.0,-999.0,83,-99.99,,,-99.99,,2013-01-18 05:03:00,
2013-01-17 21:12:00,41.0,36.0,30.19,WNW,298,0.0,-999.0,83,-99.99,,,-99.99,,2013-01-18 05:12:00,
2013-01-17 21:22:00,40.0,35.0,30.19,WNW,298,0.0,-999.0,83,-99.99,,,-99.99,,2013-01-18 05:22:00,
2013-01-17 21:32:00,40.0,36.0,30.19,WNW,298,0.0,-999.0,84,-99.99,,,-99.99,,2013-01-18 05:32:00,
2013-01-17 21:42:00,40.0,36.0,30.19,WNW,298,0.0,-999.0,84,-99.99,,,-99.99,,2013-01-18 05:42:00,
2013-01-17 21:53:00,39.0,35.0,30.20,WNW,298,0.0,-999.0,84,-99.99,,,-99.99,,2013-01-18 05:53:00,
2013-01-17 22:02:00,38.0,34.0,30.20,WNW,298,0.0,-999.0,85,-99.99,,,-99.99,,2013-01-18 06:02:00,
2013-01-17 22:12:00,38.0,34.0,30.20,WNW,298,0.0,-999.0,85,-99.99,,,-99.99,,2013-01-18 06:12:00,
2013-01-17 22:22:00,38.0,34.0,30.20,WNW,298,0.0,-999.0,85,-99.99,,,-99.99,,2013-01-18 06:22:00,
2013-01-17 22:32:00,38.0,34.0,30.20,WNW,298,0.0,-999.0,86,-99.99,,,-99.99,,2013-01-18 06:32:00,
2013-01-17 22:42:00,38.0,34.0,30.20,WNW,298,0.0,-999.0,86,-99.99,,,-99.99,,2013-01-18 06:42:00,
2013-01-17 22:52:00,37.0,34.0,30.20,WNW,298,0.0,-999.0,87,-99.99,,,-99.99,,2013-01-18 06:52:00,
2013-01-17 23:02:00,37.0,34.0,30.20,WNW,298,0.0,-999.0,87,-99.99,,,-99.99,,2013-01-18 07:02:00,
2013-01-17 23:12:00,37.0,34.0,30.20,WNW,298,0.0,-999.0,87,-99.99,,,-99.99,,2013-01-18 07:12:00,
2013-01-17 23:22:00,37.0,34.0,30.20,WNW,298,0.0,-999.0,88,-99.99,,,-99.99,,2013-01-18 07:22:00,
2013-01-17 23:32:00,36.0,33.0,30.20,WNW,298,0.0,-999.0,88,-99.99,,,-99.99,,2013-01-18 07:32:00,
2013-01-17 23:42:00,36.0,33.0,30.20,WNW,298,0.0,-999.0,88,-99.99,,,-99.99,,2013-01-18 07:42:00,
2013-01-17 23:52:00,36.0,33.0,30.21,WNW,298,0.0,-999.0,88,-99.99,,,-99.99,,2013-01-18 07:52:00,